Theta_e
341 338 334 334 338 344 344 343 344 342 340 342 343 343 341 342 342 342 341 341 341 338 336 337 337 338 336 334 336 337 335 334 334 333 332 333 334 334 331 330 329 329 329 328 326 325 326 326 327 327 326 326 326 327 327 326 323 319 317 317 317 317 318 318 319 320 321 321 322 323 323 324 325 325
341 342 340 332 329 338 343 341 342 343 339 338 340 341 340 340 341 343 343 341 341 339 337 336 336 338 338 336 336 339 337 333 330 332 335 336 336 333 330 328 327 327 327 327 325 325 326 326 327 325 324 324 325 325 325 325 323 320 318 318 318 318 318 318 318 319 319 320 321 321 322 323 323 323
338 340 344 340 330 331 336 336 337 339 335 331 332 337 339 337 337 340 342 341 340 339 338 337 337 338 338 338 338 339 338 333 326 328 334 337 334 330 328 326 325 326 326 326 325 325 326 327 326 325 324 324 324 324 324 324 323 321 320 320 321 321 319 318 318 318 318 319 319 321 322 323 322 322
334 335 339 342 338 332 331 330 334 336 332 326 327 332 335 334 332 334 338 341 341 340 338 337 339 339 338 337 337 338 339 335 327 326 333 336 332 328 327 327 327 328 327 326 326 325 326 327 326 326 325 325 325 325 325 324 324 322 320 321 322 322 319 318 318 317 318 318 318 319 319 320 321 320
334 329 328 334 336 333 331 330 330 334 333 327 324 327 331 333 331 329 333 338 340 341 340 338 338 339 340 339 336 335 338 338 331 325 328 330 329 329 330 332 332 331 330 329 328 327 327 327 327 327 326 325 326 326 325 325 324 322 321 322 324 322 319 318 317 317 317 317 317 317 317 317 317 318
337 331 325 325 327 328 329 328 328 335 338 333 328 327 329 333 335 331 329 334 339 340 340 341 339 337 339 340 338 337 337 338 336 331 327 326 327 330 333 335 334 333 332 332 330 329 328 328 327 327 327 327 327 327 326 325 325 323 322 324 325 323 320 319 317 317 317 317 317 317 317 317 316 316
337 335 328 324 325 325 325 325 327 334 341 340 336 333 331 332 337 338 334 333 339 341 340 342 342 339 339 339 339 339 338 337 338 337 333 329 329 332 334 333 334 333 333 331 330 330 329 328 328 328 328 327 327 327 327 326 325 324 324 325 325 324 321 319 318 318 317 317 317 317 317 316 316 316
334 333 330 325 325 325 325 324 325 330 337 341 340 337 335 331 333 340 340 335 334 339 342 342 342 341 341 339 339 339 339 337 338 339 337 335 335 335 335 335 336 335 334 333 333 332 330 328 327 327 327 327 327 327 327 327 326 326 326 326 326 324 321 319 318 318 318 317 317 317 316 316 316 315
334 331 330 327 326 326 326 324 324 326 329 333 335 335 336 332 327 333 340 339 335 335 338 341 342 342 341 340 340 340 340 339 339 338 338 338 337 335 333 335 336 335 334 334 334 333 330 328 327 326 326 326 326 327 327 328 327 327 327 327 325 323 321 319 319 318 318 318 317 316 316 315 315 315
338 334 332 330 329 328 327 325 324 326 326 327 330 332 333 331 327 326 330 336 338 337 338 339 341 342 341 341 340 340 340 340 339 339 339 338 337 334 332 332 334 334 333 334 333 332 330 328 328 327 326 325 326 327 327 328 328 328 327 325 323 321 320 320 320 319 318 317 317 317 316 316 316 316
344 340 334 332 331 330 328 326 324 325 326 326 326 328 329 330 329 328 328 330 336 340 341 340 340 341 341 340 340 340 341 340 339 337 338 339 338 336 333 332 332 333 333 333 333 332 331 331 331 330 329 328 328 328 328 328 328 326 325 324 323 322 322 321 320 318 317 317 317 317 317 317 316 317
351 346 338 335 333 331 330 328 326 325 325 326 326 325 327 329 329 331 332 333 336 340 343 342 341 340 340 340 340 340 340 340 338 335 335 337 337 336 334 332 331 332 331 330 331 332 332 332 333 333 332 331 331 330 330 329 327 325 324 324 323 323 322 320 316 314 314 315 315 315 316 316 316 317
353 351 343 340 339 335 332 330 329 328 326 325 326 324 324 327 329 330 333 337 340 342 343 343 341 341 340 340 339 340 340 340 338 336 337 337 336 335 334 333 333 333 332 332 332 333 332 333 333 334 333 332 331 331 329 328 326 325 324 324 324 322 318 312 309 308 308 310 310 310 311 312 313 314
352 353 347 345 345 342 338 333 331 332 331 329 328 327 325 326 327 328 332 338 342 344 343 342 342 342 341 340 340 339 340 340 339 338 338 337 336 335 335 335 334 333 333 334 333 331 331 332 332 333 332 331 330 329 327 326 326 325 324 324 322 317 311 306 305 304 304 305 305 305 306 307 308 309
349 352 348 347 348 347 344 339 333 333 335 334 333 332 332 332 331 331 334 337 341 343 343 342 343 342 341 340 339 339 339 339 338 338 338 338 337 336 335 335 334 332 332 332 332 331 330 330 330 330 330 329 329 327 326 325 325 323 322 319 315 309 306 305 304 303 303 303 303 303 304 304 304 305
345 347 346 347 349 349 347 343 336 333 335 338 337 337 337 337 337 338 339 340 342 343 342 343 343 342 341 340 339 339 339 339 337 337 338 338 338 336 334 334 333 332 330 331 332 331 330 330 329 329 329 328 327 326 326 324 322 319 316 312 307 305 304 304 302 302 302 302 302 302 303 303 303 304
341 341 342 346 347 347 347 344 339 335 334 337 340 340 341 340 340 341 342 342 343 343 343 343 344 342 341 340 339 339 339 338 338 337 337 337 336 335 333 331 331 331 329 329 329 327 327 328 328 327 327 327 326 326 324 322 319 317 313 308 304 303 303 302 302 302 302 302 302 302 302 303 304 304
338 337 338 342 344 344 345 344 341 338 335 336 339 341 342 343 342 342 342 343 343 344 344 344 344 343 341 341 340 339 339 338 337 337 337 337 336 335 333 329 326 325 325 326 326 325 326 327 327 326 326 325 325 324 323 322 320 316 311 307 303 302 302 302 302 302 302 303 302 302 303 303 304 304
337 337 337 337 339 340 341 341 341 340 337 336 338 340 342 343 344 344 344 344 344 345 344 344 344 343 342 341 340 340 339 338 338 337 336 335 334 333 329 325 323 325 327 328 327 326 327 327 325 325 324 323 323 323 322 321 318 315 311 307 304 303 303 302 302 302 302 302 302 302 302 303 303 304
338 338 338 337 337 337 338 339 339 340 340 338 337 338 340 342 344 344 344 345 346 346 345 345 344 343 342 342 341 340 339 339 338 336 333 330 328 325 323 324 327 329 329 329 327 326 327 326 324 322 322 322 322 321 319 318 317 315 312 307 305 305 304 303 302 302 302 302 302 302 302 302 303 303
344 340 339 339 337 336 337 339 340 340 340 340 339 339 340 342 344 345 345 346 347 347 346 345 344 343 342 341 340 339 338 338 337 333 330 330 328 327 327 329 330 328 327 328 327 327 327 325 322 321 320 320 319 319 318 317 317 316 314 310 309 309 308 306 305 304 303 303 303 303 304 303 303 304
348 345 343 341 338 338 338 339 342 342 341 341 340 340 342 343 344 345 346 347 347 346 345 345 344 343 342 339 338 338 337 337 334 329 327 330 331 330 330 331 329 327 327 327 326 325 324 323 321 320 319 319 318 317 317 316 316 316 316 315 314 313 313 311 309 307 307 307 307 308 308 308 308 309
347 346 347 345 338 337 339 338 340 342 342 341 340 340 343 344 344 345 346 347 346 345 345 345 345 343 341 337 336 336 336 335 332 326 323 326 330 331 330 329 328 327 326 325 324 323 323 323 321 319 318 318 317 316 316 316 316 317 317 315 315 315 315 314 312 311 311 311 311 312 313 312 312 312
348 345 351 350 339 335 340 338 338 341 341 340 340 340 342 344 344 345 347 347 346 345 345 345 343 341 339 336 334 335 336 334 331 325 321 322 327 330 329 327 325 326 326 324 323 323 322 322 320 318 318 317 316 315 315 316 316 315 315 315 315 315 314 314 314 314 313 313 314 315 316 315 313 312
352 347 353 355 344 335 340 339 336 340 339 338 340 339 340 343 344 346 347 347 346 345 345 343 342 339 337 335 335 335 335 334 329 324 320 321 324 327 327 325 325 324 323 323 322 321 321 320 319 318 317 316 315 315 316 315 315 314 315 315 315 314 314 315 314 314 314 315 315 317 317 316 315 314
355 351 355 357 350 338 339 340 336 338 339 339 340 339 340 343 345 347 347 348 346 345 343 342 340 339 337 335 334 334 334 332 327 322 321 322 323 325 325 325 324 324 324 323 322 321 320 319 317 318 317 315 314 314 315 315 314 314 315 314 314 315 315 314 314 314 315 316 317 317 317 316 316 316
355 350 352 357 353 344 341 341 338 338 339 340 339 340 341 344 346 348 347 347 346 344 342 341 339 338 336 335 335 334 333 330 326 322 322 322 323 324 324 323 322 322 323 322 320 318 318 316 314 314 312 310 310 312 314 314 314 313 313 313 315 314 314 314 314 315 316 317 318 317 317 317 316 316
355 353 351 355 356 352 346 343 341 339 339 339 338 341 344 346 348 348 347 347 346 343 341 340 338 337 336 335 334 333 332 331 328 325 323 324 324 324 323 322 320 319 319 318 317 315 315 314 314 314 310 306 308 311 312 311 311 312 313 313 313 313 313 314 315 316 317 317 317 316 316 316 315 315
357 357 355 355 357 355 351 348 345 343 341 339 338 342 346 347 349 348 347 347 346 343 341 339 338 336 335 335 333 332 332 330 329 326 325 325 324 323 322 321 320 318 317 316 315 314 314 314 315 314 309 305 305 308 309 309 309 310 311 312 312 312 313 314 315 316 317 316 316 316 315 314 313 314
357 358 357 357 357 356 355 352 349 345 342 339 340 344 347 349 349 349 348 346 345 343 340 339 338 337 335 334 333 332 331 329 327 325 325 325 323 322 321 320 319 318 318 317 316 315 315 315 315 311 307 304 304 306 307 308 307 306 307 309 312 313 314 315 316 317 316 316 316 314 310 309 312 314
358 357 357 357 357 356 355 354 351 348 344 341 344 347 349 349 349 349 348 346 345 343 340 339 338 336 335 334 333 332 330 328 325 325 324 323 322 321 322 322 321 321 321 320 319 318 318 317 315 311 305 303 303 303 303 304 304 303 304 309 312 313 314 315 316 317 316 316 315 311 309 309 312 313
358 358 357 356 356 356 356 355 353 350 346 344 346 349 350 349 349 349 347 346 344 343 341 339 337 335 334 334 333 331 329 326 324 325 323 321 321 322 323 323 323 322 322 321 320 319 319 317 315 310 305 302 302 302 302 302 303 303 305 309 313 314 315 315 316 316 316 315 313 311 311 313 314 314
359 358 358 357 355 355 355 355 353 351 348 347 348 349 349 349 348 348 347 344 342 342 341 338 336 334 334 333 331 329 327 325 323 324 321 319 321 324 324 323 323 322 322 321 320 319 319 317 315 312 307 302 301 302 303 305 306 307 309 312 314 314 315 315 316 316 315 315 314 313 314 315 314 314
359 359 358 356 354 354 354 354 354 352 349 348 349 348 348 347 348 347 347 344 342 341 340 337 335 334 334 332 329 328 327 325 324 322 320 319 321 323 323 323 322 321 321 321 320 319 318 317 316 314 310 306 305 305 307 309 310 311 313 315 315 315 316 316 315 315 315 315 315 315 315 315 314 313
360 359 355 351 348 348 350 353 354 353 350 348 348 348 347 346 346 346 346 344 341 340 339 336 335 335 334 331 329 328 327 325 323 321 321 322 322 322 322 323 322 321 321 321 320 319 317 316 316 315 313 312 313 312 311 311 312 313 314 316 315 315 315 315 315 315 315 315 315 315 315 314 313 312
359 359 355 350 344 345 349 353 353 353 352 349 347 347 346 344 345 345 345 343 341 339 338 335 334 335 333 330 328 328 326 323 321 322 324 324 323 322 323 323 322 321 321 321 320 319 317 315 315 315 314 314 314 313 312 313 313 313 314 314 314 314 314 313 313 314 315 316 316 315 315 314 313 312
353 357 357 354 348 347 349 352 352 352 353 350 347 347 346 345 344 344 343 342 340 338 336 335 334 333 332 329 328 327 324 321 321 323 326 325 324 324 323 323 322 321 321 320 320 318 316 315 314 313 312 312 312 312 312 313 313 313 313 313 313 311 310 310 312 314 316 316 315 314 313 313 312 312
341 349 354 356 353 350 351 351 350 350 351 350 348 347 346 345 344 342 341 339 338 337 336 334 333 332 330 329 328 325 323 322 323 324 325 325 324 323 322 322 321 321 320 320 319 317 315 314 313 313 312 312 311 312 312 313 313 314 313 311 308 307 308 311 314 316 316 315 314 313 312 311 311 311
330 339 347 353 354 353 351 350 350 349 349 349 348 346 344 343 342 340 338 337 336 336 335 333 332 330 329 328 326 323 322 323 324 323 325 325 324 322 321 321 321 320 320 320 319 317 315 314 313 313 312 312 312 313 312 310 308 308 307 305 306 308 312 314 315 315 314 314 313 312 311 311 311 310
330 332 339 346 351 353 351 349 349 349 349 349 348 346 343 342 340 338 336 335 334 334 334 332 330 329 328 326 324 322 323 324 324 323 324 324 323 322 321 320 320 320 320 319 318 317 315 314 313 313 313 314 313 310 306 303 302 303 304 307 310 312 313 312 313 313 314 313 313 313 312 311 310 310
331 331 332 337 344 350 351 348 347 347 348 347 346 344 342 340 338 336 335 334 334 334 332 330 329 328 326 324 323 322 323 324 324 324 323 323 323 322 320 320 320 320 319 318 317 316 315 314 313 312 313 312 308 304 302 304 306 308 310 312 312 312 311 311 312 312 312 313 313 313 311 310 309 309
330 331 332 332 336 343 348 348 346 346 345 344 343 341 340 338 337 336 334 333 333 333 330 328 327 325 324 322 322 322 323 324 324 324 323 323 322 321 320 320 320 319 318 317 317 315 314 313 312 312 312 310 306 304 307 310 312 312 313 313 312 311 312 312 312 312 313 313 313 311 310 309 309 308
331 331 332 333 333 336 341 345 344 343 343 341 340 339 337 336 335 334 333 332 332 331 328 326 325 324 323 322 322 322 322 323 324 324 323 322 321 321 320 319 318 318 317 316 314 313 313 313 312 311 310 309 309 310 312 313 312 312 312 312 312 311 311 312 313 314 314 313 311 309 308 308 307 306
332 331 331 333 333 333 337 340 341 340 339 339 338 337 335 334 334 333 332 331 330 328 326 324 323 323 322 322 322 322 323 324 325 324 323 322 321 321 320 319 317 316 315 314 313 313 313 312 312 311 311 311 312 312 312 312 312 312 312 311 311 311 312 314 315 314 313 312 310 308 308 307 306 305
333 332 332 333 333 334 336 338 339 338 336 336 336 335 333 333 332 332 331 330 328 326 324 323 323 323 323 322 322 323 324 325 324 323 322 321 320 319 318 317 316 315 314 313 313 313 312 311 311 311 311 311 311 311 311 311 312 311 311 311 312 313 313 314 314 314 312 311 309 307 307 306 305 304
Wind_Speed
15 15 16 17 15 12 12 12 10 11 12 11 10 10 10 10 8 7 7 7 7 8 9 10 10 11 12 11 9 11 11 11 12 13 13 13 13 11 10 11 12 11 12 12 12 11 11 11 11 12 12 12 13 13 14 15 15 15 16 16 17 17 18 18 18 18 18 18 18 18 18 17 17 17
16 16 16 17 17 15 15 14 13 13 15 14 12 11 11 11 10 8 7 7 7 8 8 8 9 11 12 11 9 11 11 10 10 12 12 12 12 10 8 9 11 11 12 12 12 12 12 12 12 11 12 12 12 13 13 14 15 15 15 16 17 18 19 19 19 19 19 19 19 19 19 19 19 19
18 18 17 17 18 18 17 17 15 15 17 15 13 12 12 12 12 11 9 8 8 9 8 7 7 8 9 9 9 10 11 10 9 10 11 11 11 10 9 10 11 11 12 12 13 14 14 13 13 12 13 12 12 13 13 14 14 15 15 16 17 19 20 20 20 20 20 21 21 21 21 21 21 21
19 20 20 19 19 19 19 18 16 16 17 16 14 14 13 13 13 13 12 10 9 9 9 8 8 7 9 11 11 11 11 11 11 9 10 11 11 10 10 11 11 11 12 13 13 15 15 15 14 15 15 15 15 15 15 15 15 16 17 18 19 19 19 20 20 21 21 22 22 23 24 24 24 23
20 21 22 22 22 21 20 20 18 17 17 16 15 15 15 15 14 14 14 13 11 10 10 10 10 8 9 12 13 12 11 12 13 11 10 11 11 10 10 11 12 11 11 13 14 14 15 15 16 17 17 17 17 17 16 16 17 18 18 19 20 19 19 19 20 21 22 23 23 24 25 26 27 27
22 22 23 23 24 23 22 21 19 17 16 16 15 16 16 15 15 15 15 15 14 12 12 13 12 11 11 12 13 13 12 12 13 14 12 12 12 12 10 11 14 14 14 15 14 14 15 16 17 18 18 18 18 18 17 18 18 19 20 21 20 19 19 20 20 21 22 23 24 25 25 26 26 27
23 24 24 24 24 25 24 23 21 18 17 16 16 16 16 15 15 15 15 15 14 13 12 13 13 12 12 13 13 13 13 12 13 14 14 13 13 12 11 11 13 15 16 16 15 14 15 17 18 18 18 18 18 18 18 18 19 20 21 21 21 20 21 21 22 22 23 23 24 25 25 25 25 26
25 25 25 24 24 25 25 24 23 21 19 19 18 17 18 17 16 16 16 16 15 14 13 13 13 13 13 14 14 13 13 12 13 14 14 13 12 13 12 11 12 14 15 16 16 17 17 17 16 16 17 17 17 18 18 19 20 21 21 22 22 22 22 22 23 24 24 24 23 24 25 25 25 25
27 26 26 25 25 25 26 26 25 25 23 22 21 20 20 20 18 18 18 17 17 16 15 14 13 13 13 14 15 14 13 13 13 13 14 13 13 13 13 11 12 14 16 16 16 18 18 17 16 16 16 17 18 18 19 19 20 21 21 22 22 23 23 24 24 24 25 25 24 23 23 24 25 25
29 29 27 27 26 27 27 27 27 27 26 25 24 23 22 22 21 20 19 19 18 17 16 15 14 14 14 14 15 15 15 14 13 13 13 13 13 14 14 12 12 13 15 15 16 18 18 18 19 18 18 19 19 18 19 19 20 21 21 22 23 24 23 23 23 23 24 25 25 24 22 22 23 24
29 31 30 29 29 29 28 28 28 28 28 28 27 26 25 24 22 21 21 20 19 18 17 16 15 14 14 15 16 15 15 15 15 14 14 13 14 14 14 14 13 13 12 13 14 17 18 19 20 20 19 18 18 18 18 18 18 19 20 22 23 23 22 22 24 25 24 23 24 24 23 22 22 22
26 30 32 32 32 32 30 29 29 30 29 29 28 28 27 26 24 23 21 20 20 18 17 16 15 14 15 16 17 16 15 15 16 16 15 14 14 14 15 14 14 14 14 13 13 14 15 17 17 18 18 17 17 17 17 16 17 19 20 21 23 24 24 26 28 28 25 23 22 23 24 24 23 23
26 29 33 33 32 33 32 31 30 29 30 30 29 28 28 27 26 25 23 21 20 19 18 17 15 15 16 18 18 18 17 17 17 16 15 15 15 14 14 14 14 15 14 13 12 12 13 14 15 16 17 18 17 16 16 17 17 18 20 23 25 26 27 28 28 27 26 24 23 23 23 24 25 24
29 30 33 33 32 32 33 32 31 29 29 29 29 28 27 27 27 26 25 23 21 20 19 17 15 16 18 19 19 19 19 18 16 15 15 16 15 13 12 13 14 14 13 12 13 13 13 13 14 15 16 16 14 14 17 18 17 18 21 24 26 27 27 26 25 24 24 24 23 22 22 22 23 24
34 32 34 34 32 33 33 33 32 30 29 28 28 27 27 27 27 26 26 25 23 22 21 17 16 17 19 20 20 20 19 17 16 17 17 16 14 13 12 12 12 13 14 14 14 13 13 14 14 14 15 14 13 13 16 20 20 20 22 24 25 25 24 23 22 21 21 21 20 20 19 18 19 20
38 37 37 36 34 34 35 35 34 32 30 29 28 27 27 27 27 26 26 26 24 24 22 19 18 19 20 20 20 20 19 17 16 18 19 16 13 13 13 11 11 14 16 14 13 14 14 12 13 14 14 14 12 13 18 20 20 21 22 22 22 22 21 20 20 20 19 20 20 20 19 18 17 18
42 42 40 38 37 37 36 36 36 34 33 31 30 28 27 28 28 26 26 27 25 23 22 20 21 20 20 21 21 20 19 18 17 18 19 16 14 15 14 13 12 14 16 15 14 16 14 11 11 12 12 11 11 14 18 19 20 22 22 21 20 19 19 19 19 19 20 20 20 21 21 20 19 18
45 45 44 42 40 39 38 38 37 36 35 34 33 31 30 29 30 29 28 29 28 26 24 23 23 21 19 21 22 20 21 22 21 19 17 15 14 14 14 14 15 16 16 15 14 15 13 9 9 10 10 10 11 14 18 19 21 23 21 17 17 18 19 19 19 20 20 20 21 21 21 22 21 21
47 46 46 46 44 42 42 42 40 37 37 36 35 34 33 32 32 32 32 31 31 30 28 27 27 25 22 21 21 21 22 21 20 19 17 15 15 15 14 15 15 13 11 11 12 14 12 8 8 10 10 10 11 13 17 20 21 21 19 16 17 18 17 17 18 18 19 19 20 20 21 21 22 22
48 49 48 47 47 45 45 44 43 39 37 37 37 36 35 34 33 35 35 33 31 30 30 29 29 27 24 22 21 22 21 18 17 17 17 16 16 15 14 12 10 7 9 13 15 14 11 8 8 10 10 11 12 13 16 18 18 17 17 18 18 17 16 14 15 16 17 18 18 18 19 20 20 21
44 48 50 50 49 48 46 45 44 41 39 38 39 37 36 35 34 35 36 34 32 31 30 30 30 28 27 26 25 25 23 19 16 16 15 14 13 12 11 10 9 9 11 12 12 11 10 8 8 10 11 12 14 14 13 13 15 17 18 17 18 18 18 16 15 15 15 14 14 15 16 17 18 18
43 44 47 49 50 49 47 46 43 41 40 40 40 39 37 37 37 37 36 34 31 30 30 29 30 31 31 31 29 28 27 24 19 17 16 13 11 13 14 13 11 11 10 11 13 13 11 8 8 10 11 12 12 11 9 10 14 16 16 16 17 18 20 19 18 16 14 14 14 14 13 14 15 16
49 47 44 47 53 51 48 49 47 43 41 41 42 42 39 38 40 37 34 34 32 31 30 28 29 32 32 33 32 30 28 26 22 20 18 15 14 14 15 13 12 11 10 13 17 17 13 9 8 9 9 10 10 10 10 10 11 11 13 14 16 16 18 20 20 18 17 17 17 15 14 14 15 17
52 51 42 43 54 55 50 51 50 47 44 43 43 44 43 43 41 33 30 33 33 30 28 26 28 32 33 32 33 32 30 26 23 21 20 18 17 16 15 14 12 11 11 14 16 17 14 11 10 9 9 10 11 11 10 10 11 11 12 12 13 14 16 19 19 18 18 18 18 16 16 16 17 18
49 51 41 39 52 56 53 53 53 51 49 45 44 47 47 46 41 32 29 31 31 28 26 24 25 29 32 33 33 32 31 28 24 22 22 20 18 17 15 14 13 11 13 16 17 18 19 17 14 12 10 11 11 11 11 12 12 11 10 10 12 14 15 16 17 17 17 17 17 16 17 18 19 18
42 46 41 39 50 56 54 54 54 53 51 46 44 47 47 45 41 34 30 31 30 27 25 23 22 23 25 29 28 26 28 28 25 23 23 21 19 17 15 14 14 13 12 16 19 20 22 21 16 12 10 11 11 11 12 12 11 9 9 11 13 14 15 15 16 16 15 15 15 16 17 20 20 19
41 46 43 40 48 55 54 53 54 53 51 48 45 45 45 43 40 34 31 31 32 28 23 22 24 24 22 23 23 24 25 24 24 24 23 21 19 17 15 17 20 19 18 18 20 21 21 20 15 12 11 11 11 11 12 11 9 10 11 12 13 13 14 15 15 15 15 14 14 15 17 18 18 19
44 46 44 39 42 50 53 52 52 51 51 49 46 44 43 43 40 36 34 34 34 30 25 25 29 29 26 24 24 25 23 20 20 22 20 18 19 19 18 20 22 22 21 19 19 20 20 18 14 11 11 11 10 11 12 11 11 11 12 13 14 14 14 14 15 15 14 14 15 15 16 17 17 18
41 39 38 37 39 45 49 49 49 49 48 48 47 46 44 44 43 40 38 37 36 33 29 28 31 32 28 24 24 25 23 21 21 21 20 19 20 20 20 22 22 20 18 17 17 17 17 16 13 11 12 12 10 10 11 13 13 13 13 15 16 16 15 14 14 13 14 15 15 15 17 18 18 19
43 37 35 36 39 43 45 45 46 46 45 45 47 48 47 47 46 43 41 40 39 37 31 28 30 32 27 23 24 26 26 26 25 24 24 24 23 21 20 20 20 18 15 14 15 14 13 14 14 12 12 11 10 10 11 12 13 14 14 15 16 16 15 14 13 14 15 15 16 18 20 20 19 18
47 43 40 39 41 42 42 42 43 44 44 45 48 50 49 49 48 46 45 43 41 39 35 29 28 29 25 23 27 29 29 29 28 27 27 26 24 21 19 17 16 14 11 10 11 12 12 14 16 14 13 12 10 9 10 12 13 14 14 14 15 16 15 14 14 15 14 15 19 23 24 21 19 18
44 46 47 47 45 43 42 42 43 44 45 47 49 51 51 50 49 48 47 45 42 40 36 30 29 29 27 27 29 31 31 31 30 29 28 27 23 19 16 16 14 12 10 10 11 14 16 18 18 17 14 12 10 9 10 11 11 12 13 14 14 15 15 15 15 14 14 18 24 25 23 20 19 18
43 47 51 52 51 48 45 45 46 47 48 48 49 52 53 52 51 50 48 47 46 43 39 36 33 32 32 31 31 32 33 32 31 29 29 28 24 19 17 17 16 13 11 10 11 14 19 21 20 18 15 12 10 9 9 9 9 9 10 12 13 14 15 15 15 15 17 20 23 23 21 20 19 18
46 52 53 53 53 51 47 46 47 48 49 49 50 53 54 54 54 52 51 51 49 45 42 41 37 34 34 34 32 33 34 32 30 29 28 28 26 23 21 19 17 15 13 12 11 13 16 19 19 19 17 14 11 10 9 9 10 10 9 10 12 14 15 15 16 17 18 19 21 21 22 21 20 19
47 54 55 53 52 52 52 52 52 51 51 51 52 54 55 56 55 54 53 53 51 47 45 43 39 37 37 36 33 32 31 31 30 28 27 27 26 25 23 20 17 15 13 13 13 13 15 17 18 18 17 14 12 13 12 10 9 9 9 9 12 14 15 16 17 18 18 19 19 20 22 22 21 20
49 54 56 56 54 55 57 59 59 59 58 56 56 57 59 58 57 57 56 54 50 48 47 45 42 41 40 38 33 30 29 29 29 27 26 26 23 21 21 19 17 15 13 13 14 14 15 16 17 17 16 13 12 13 12 9 7 8 9 10 12 14 16 18 19 19 18 18 18 19 22 23 24 23
54 56 58 60 60 60 62 64 65 66 65 63 62 64 66 65 61 58 57 54 50 47 48 47 44 43 42 40 35 31 28 29 28 25 25 25 22 20 20 19 18 16 15 14 14 14 15 17 17 17 16 14 12 10 8 8 8 8 9 11 13 16 18 19 19 18 17 17 18 20 21 23 26 26
60 59 60 63 65 67 68 68 68 69 68 67 67 68 70 69 65 60 57 55 52 49 48 48 46 44 41 39 37 33 30 29 27 25 25 26 24 22 22 20 17 16 15 15 15 16 17 18 18 18 17 15 12 9 6 5 6 7 10 14 17 19 19 18 17 17 18 18 19 21 23 25 27 28
62 62 62 64 67 71 73 73 73 73 72 70 69 70 70 69 65 62 60 58 55 51 48 48 49 46 41 38 36 33 32 30 28 26 26 25 24 23 22 20 17 15 15 14 15 16 17 18 19 19 18 15 13 10 9 10 10 11 13 16 17 17 16 15 16 18 18 19 21 23 25 26 26 26
55 58 61 64 66 69 72 75 75 75 75 75 72 71 70 67 62 60 60 58 56 52 49 49 49 45 40 37 35 32 32 31 28 25 25 25 25 23 22 20 18 15 14 14 15 16 17 19 20 20 18 16 15 14 13 13 13 13 12 12 13 14 16 18 19 19 19 20 22 24 26 27 26 25
44 48 54 60 64 67 70 74 75 75 75 76 75 73 72 67 63 61 60 58 55 52 49 48 46 42 39 38 37 34 31 29 26 24 25 26 25 24 22 21 18 16 15 15 16 17 17 19 21 21 20 19 18 16 13 11 11 10 10 10 12 14 17 18 18 19 20 21 21 22 24 25 26 25
38 40 44 51 58 62 66 69 74 75 72 70 70 70 69 66 64 64 62 59 54 51 48 46 44 41 38 37 35 33 30 27 25 25 26 25 24 23 23 22 20 17 16 16 16 16 16 19 22 24 24 23 20 15 11 9 9 9 10 11 12 14 15 17 18 19 19 19 21 23 24 24 24 24
37 37 40 44 49 56 60 62 65 68 68 66 66 64 62 61 62 61 60 57 53 50 47 44 42 39 37 35 33 30 28 27 25 25 26 25 24 22 21 21 21 19 17 16 16 15 15 18 21 23 23 21 17 14 12 10 9 10 11 12 12 13 15 18 19 18 18 19 22 24 23 22 23 24
37 35 36 38 40 46 52 55 56 58 60 63 64 61 60 62 62 60 57 54 51 48 44 41 38 37 36 34 30 28 27 26 25 26 26 25 23 21 20 20 21 20 18 16 15 16 16 16 17 18 18 17 15 14 13 11 10 10 11 11 13 14 15 15 15 16 18 20 22 22 22 22 24 25
28 24 26 30 35 41 45 43 45 49 53 57 61 60 60 62 62 59 56 53 48 43 39 37 36 34 33 31 28 27 27 26 25 25 25 24 22 21 19 18 18 18 17 16 16 16 16 16 16 16 16 16 15 14 13 11 11 11 11 12 13 13 13 12 13 15 17 19 19 19 20 22 23 25
Wind_Direction
218 220 216 206 196 198 206 202 203 210 207 202 202 203 202 200 204 207 205 213 222 215 212 218 216 223 244 247 227 230 242 241 242 250 255 252 251 256 251 248 254 257 260 268 275 280 287 294 299 300 300 300 299 299 298 299 302 305 309 312 313 313 312 310 309 308 308 307 306 304 302 300 298 295
213 216 221 222 212 203 209 208 203 215 219 213 209 209 208 206 205 206 214 219 217 214 217 230 234 233 242 247 236 236 244 243 236 237 241 243 250 258 257 254 259 260 263 269 272 274 281 290 294 295 296 296 296 296 295 295 297 300 304 308 310 310 309 308 309 308 308 308 306 304 302 300 299 296
213 213 214 225 225 213 215 218 210 219 230 226 218 215 214 216 213 208 215 221 215 215 217 225 238 244 246 244 236 240 248 248 238 230 233 242 251 260 263 263 265 267 269 271 273 275 280 287 292 295 297 298 297 297 295 293 292 293 295 300 304 304 303 304 305 305 305 304 304 303 301 298 296 293
216 216 213 220 228 222 220 223 218 221 234 235 224 220 221 223 222 215 214 220 219 217 218 219 224 240 257 254 242 236 245 256 253 236 231 243 253 259 264 268 268 267 270 272 272 274 280 285 291 295 297 298 298 298 297 293 291 290 293 298 301 300 299 298 299 299 298 298 297 297 296 295 294 292
220 223 222 221 227 228 225 226 223 221 232 238 230 223 224 226 228 225 219 220 223 224 223 223 223 225 237 251 257 246 233 248 264 259 242 245 254 258 262 270 274 274 275 275 275 278 282 286 290 293 294 295 295 295 293 291 290 289 292 297 300 299 297 294 293 294 294 294 294 293 292 293 293 293
222 226 230 228 229 232 231 230 229 221 225 236 233 227 227 225 227 231 228 221 221 229 228 225 232 231 223 234 253 253 234 233 253 264 262 257 258 257 252 258 272 283 284 282 284 287 288 290 292 293 293 292 292 290 289 288 288 289 292 296 298 298 297 295 293 293 293 294 293 292 292 291 291 291
225 226 232 234 233 234 234 234 233 225 219 226 230 229 230 227 222 227 234 227 218 223 230 230 235 236 232 234 239 243 243 234 232 246 260 262 259 258 256 255 266 276 278 280 288 292 290 291 291 291 291 290 288 286 285 285 286 288 292 296 297 298 297 296 295 295 294 294 294 293 292 291 290 288
234 232 235 238 237 237 238 237 236 231 223 222 226 228 230 233 226 220 228 235 227 221 224 230 232 229 234 242 238 234 240 240 233 236 245 250 252 256 259 260 265 270 274 282 291 293 292 292 293 293 292 289 287 285 283 284 285 287 291 295 297 297 296 295 295 296 296 294 293 292 291 290 289 287
241 240 241 243 241 238 239 241 240 237 233 229 230 230 230 234 235 225 222 232 236 230 225 226 230 228 229 236 238 234 232 235 238 240 241 242 245 252 256 258 263 272 282 288 290 293 297 297 295 294 293 291 289 287 286 287 287 290 293 295 295 294 294 294 294 294 295 295 294 292 290 289 288 287
246 245 245 246 244 241 241 243 244 242 239 237 236 234 233 234 238 236 229 228 232 234 231 228 229 232 233 234 238 236 232 232 236 240 245 248 252 258 262 261 261 271 284 291 290 294 302 305 303 300 297 295 293 292 291 289 289 292 294 293 292 293 295 296 296 296 297 297 296 295 293 290 289 288
246 247 249 247 245 244 242 243 245 244 242 241 239 239 238 236 237 238 237 233 230 230 232 230 230 236 241 241 242 243 239 237 238 238 239 245 256 263 266 266 266 266 273 280 284 292 300 302 303 304 303 300 299 296 293 292 295 297 296 294 296 299 302 302 301 301 299 296 295 295 295 293 290 288
237 243 249 250 247 247 245 244 244 244 243 241 240 241 240 238 237 237 236 235 230 227 227 229 232 239 245 244 244 246 243 239 245 249 243 238 243 254 264 271 273 273 276 278 279 285 289 292 296 300 301 300 297 294 295 299 302 300 298 300 303 305 305 303 302 301 298 296 294 293 293 293 291 288
232 237 246 249 248 247 247 246 245 245 245 243 241 241 240 238 237 235 233 231 227 224 224 227 233 239 244 245 243 243 241 241 249 254 248 242 241 246 258 266 270 276 282 282 279 281 284 289 292 290 292 296 296 298 303 304 300 296 299 302 303 302 302 301 300 298 297 296 293 291 290 289 289 287
233 234 242 245 246 246 247 247 247 245 245 245 243 242 241 239 238 236 233 228 223 221 223 227 234 238 243 245 243 242 244 247 252 250 243 245 249 248 251 259 268 274 275 274 279 284 284 283 283 284 287 292 296 300 299 294 291 291 294 295 295 297 299 300 298 297 296 295 293 291 289 287 287 286
236 236 241 243 243 244 245 246 247 245 244 244 243 242 241 240 240 238 235 231 224 222 224 226 232 238 242 244 243 244 245 244 244 247 248 249 248 245 246 256 270 276 275 277 281 285 286 284 285 287 286 285 287 284 277 275 278 281 284 289 295 299 302 303 302 301 299 298 297 295 292 289 287 286
239 240 243 243 241 243 245 247 248 247 244 243 242 241 239 239 241 240 238 235 230 227 229 229 232 236 238 240 241 241 242 239 236 242 249 248 241 240 246 253 264 272 275 279 282 285 288 288 286 284 282 284 284 274 267 270 278 284 291 298 302 304 305 306 306 305 303 302 301 299 297 293 289 286
242 243 244 242 241 243 245 248 250 248 245 242 241 240 237 237 240 239 239 238 234 231 232 231 234 236 234 237 239 237 237 237 234 239 246 244 239 243 250 253 257 266 275 280 282 285 288 285 281 281 283 284 278 271 274 281 289 296 303 306 305 306 309 309 309 307 306 306 304 302 301 298 294 290
244 245 245 243 243 244 245 247 249 248 246 242 240 238 236 235 238 238 238 238 237 235 232 229 231 233 231 233 236 235 235 234 230 230 235 235 237 243 251 260 268 278 287 289 285 284 284 280 277 278 281 281 278 279 284 288 291 297 304 308 308 311 312 310 310 309 307 306 304 302 300 297 295 293
246 246 246 245 245 245 246 247 247 246 245 243 239 239 237 236 238 240 240 240 239 238 235 232 231 233 233 233 232 231 233 234 229 226 226 229 235 243 256 271 284 293 291 279 276 278 276 270 271 275 281 283 282 282 284 286 290 298 307 313 312 311 310 307 306 306 305 305 303 301 299 297 296 295
246 246 246 245 245 244 245 248 247 245 244 244 241 240 239 239 239 243 245 244 241 239 238 236 233 232 234 236 235 232 230 228 224 225 232 238 242 252 265 274 280 279 264 261 268 270 261 256 266 276 282 282 278 279 283 287 291 297 305 312 314 313 313 312 309 308 308 308 306 304 302 299 297 296
243 245 245 245 245 244 243 245 246 243 240 242 243 241 239 239 239 240 244 245 241 237 238 238 235 230 227 230 234 234 231 228 225 225 232 237 241 253 264 263 257 254 253 256 256 245 236 246 268 278 281 281 282 286 288 288 286 289 300 311 317 317 317 318 321 320 316 316 317 314 308 304 302 303
240 243 244 244 244 244 242 242 243 242 237 237 241 242 239 237 236 235 237 240 237 234 234 236 235 232 228 226 229 233 233 232 232 231 231 229 231 245 254 254 253 252 244 236 233 235 243 256 269 278 284 286 288 288 281 279 284 292 304 313 313 312 311 314 321 326 327 330 333 330 323 315 312 310
241 242 243 244 244 243 241 241 241 241 237 233 236 239 238 235 235 231 229 232 234 232 232 233 234 233 229 225 226 229 232 232 233 235 235 229 227 237 245 246 243 244 242 235 236 244 254 260 265 275 284 288 287 281 278 279 282 288 296 301 303 303 304 307 314 321 325 326 328 330 330 325 318 313
244 243 241 242 245 243 240 241 241 240 238 234 232 234 235 235 234 226 220 226 231 231 233 235 233 229 225 224 225 227 229 231 234 236 236 232 230 231 236 240 237 236 239 237 238 246 250 251 262 270 271 276 279 281 283 280 278 285 292 294 296 298 300 302 306 311 313 311 313 318 319 317 317 316
244 244 240 240 245 245 241 241 241 240 240 236 231 231 234 236 233 222 214 221 227 227 228 228 225 223 222 223 225 226 228 231 234 234 234 235 232 227 228 234 233 230 236 239 244 252 256 259 268 270 263 268 275 278 280 280 285 296 298 292 294 295 296 297 298 301 302 301 304 308 306 307 313 316
242 243 240 240 245 246 244 242 241 241 240 236 231 230 233 234 231 220 212 218 223 221 220 216 210 211 214 217 220 224 228 231 231 231 235 235 229 223 224 229 225 220 231 242 247 255 262 266 267 260 253 262 269 273 279 287 297 301 293 293 297 296 294 294 292 293 294 294 297 300 299 304 312 313
242 244 242 240 244 247 245 243 242 241 239 236 232 230 230 230 227 217 208 214 218 215 213 207 201 200 202 205 210 216 221 226 228 228 232 233 224 214 215 224 224 219 225 241 253 261 269 271 266 255 253 259 265 272 280 288 293 295 296 299 299 294 292 292 288 289 292 292 295 297 299 303 308 309
242 244 243 240 241 245 245 244 243 241 239 238 233 228 225 226 223 213 206 211 215 212 206 201 200 201 199 197 204 210 210 213 223 225 222 220 214 208 212 224 232 233 234 245 259 269 274 273 265 259 262 264 263 270 281 288 291 296 299 298 295 293 293 290 287 288 290 293 296 298 299 301 301 301
241 240 242 241 241 243 245 244 242 238 238 238 232 225 221 221 220 213 208 212 215 211 203 200 201 203 201 196 202 208 204 203 215 219 210 206 208 210 215 226 238 244 246 252 261 268 271 266 255 248 255 260 262 268 279 288 293 296 295 293 293 295 293 289 288 287 288 292 295 296 299 300 298 297
246 240 239 240 241 242 242 241 239 236 236 236 230 223 218 218 217 212 207 210 214 210 203 199 200 201 201 198 202 208 206 203 209 213 208 206 209 211 217 230 241 248 254 260 262 262 261 258 255 253 255 259 265 272 277 284 290 294 294 292 291 292 291 289 287 287 290 292 291 295 304 309 306 301
254 248 242 240 242 243 241 240 239 237 235 233 226 219 216 215 214 211 209 211 214 211 204 199 197 198 198 196 202 209 208 204 208 213 213 213 213 212 216 227 238 246 254 259 258 254 247 245 251 258 261 262 266 275 282 284 289 295 298 293 287 286 288 289 288 289 291 288 290 300 310 315 312 306
256 253 248 244 241 241 238 235 233 231 231 229 223 217 214 213 210 209 208 208 210 210 204 196 193 194 193 194 203 211 208 203 209 216 218 219 217 213 213 219 222 229 237 241 246 249 246 246 254 262 265 264 268 278 284 284 289 296 298 293 287 283 285 288 290 291 289 288 295 306 312 311 309 307
254 251 249 244 240 239 237 232 227 226 227 227 223 218 214 210 206 206 205 202 203 204 201 195 193 193 190 192 203 209 205 203 211 218 220 220 215 207 208 215 216 219 227 234 240 244 247 254 263 269 271 272 276 280 284 288 297 303 295 286 283 282 284 287 289 289 290 292 299 305 307 306 307 306
253 247 245 242 240 240 240 234 229 227 226 225 224 219 213 208 205 204 203 201 200 201 199 195 193 194 193 193 200 205 204 205 211 216 217 218 214 207 207 212 216 219 224 231 235 238 242 249 254 260 270 281 289 294 303 309 311 310 298 282 279 281 284 288 289 290 292 295 299 301 302 303 305 304
257 247 240 237 237 238 240 239 235 232 230 228 225 219 213 207 204 203 201 199 198 198 196 192 191 195 197 194 196 202 206 208 209 209 211 214 215 213 209 210 215 219 222 228 232 232 236 241 243 249 261 272 280 290 304 312 307 300 290 277 277 282 284 287 291 292 293 296 299 300 299 300 303 304
260 252 243 237 234 233 235 237 236 233 233 230 224 218 212 207 204 204 202 198 196 197 194 189 189 194 197 195 195 199 203 205 204 202 207 215 220 218 213 211 214 216 218 224 228 229 233 236 237 242 249 252 256 269 288 301 295 288 284 277 278 282 285 289 293 294 294 298 300 298 298 300 302 303
256 253 246 240 234 231 232 234 232 230 230 227 221 215 210 206 204 204 201 196 194 194 191 187 188 193 196 197 199 198 198 200 200 199 207 218 221 219 217 216 216 217 217 220 225 230 232 233 236 240 244 248 250 257 279 300 300 294 291 285 283 288 293 296 297 296 297 299 300 300 300 299 299 301
253 249 245 241 236 232 232 232 228 225 225 223 218 212 208 204 202 200 197 194 193 192 189 186 188 191 192 195 200 198 194 195 197 198 208 219 222 221 222 220 216 216 217 220 226 231 231 232 237 239 240 244 250 253 259 271 278 285 289 287 290 297 300 296 292 294 298 300 301 302 302 300 300 303
254 249 245 242 239 235 233 231 226 223 221 220 215 210 205 201 197 195 195 194 191 189 188 187 189 189 188 191 196 194 191 194 198 200 208 219 223 222 220 219 216 215 216 219 224 228 229 230 235 238 239 242 246 245 244 251 261 269 277 284 294 304 303 294 289 291 295 299 302 304 305 305 306 307
262 256 249 245 242 239 235 230 225 221 219 216 212 207 202 196 191 189 190 189 186 185 185 186 188 187 184 185 189 189 189 195 199 201 208 217 222 222 221 219 215 214 214 217 221 226 229 232 235 236 236 235 237 245 256 268 279 284 285 292 301 303 300 295 291 289 291 296 301 304 307 309 310 310
277 267 258 250 245 242 238 232 226 221 217 213 209 203 198 192 189 188 188 185 182 181 181 182 183 182 181 184 188 188 189 193 197 203 212 218 221 224 223 218 214 213 215 217 221 226 232 238 240 237 233 235 246 259 270 277 284 287 288 290 293 294 296 296 292 290 293 298 301 303 306 309 309 310
290 276 265 257 249 245 241 234 226 219 214 208 201 196 193 189 187 186 183 180 179 180 179 179 180 179 180 185 188 189 191 193 198 207 216 219 219 221 221 217 214 214 215 217 222 227 234 240 242 240 239 244 253 260 261 260 265 272 277 282 289 295 298 295 293 295 298 301 303 304 306 307 307 308
301 282 270 263 256 250 246 239 228 217 209 200 193 189 186 183 180 178 175 174 176 177 177 177 178 179 181 185 188 192 196 199 203 210 215 215 215 218 218 215 213 214 216 221 225 226 228 235 240 242 243 245 246 244 245 251 258 268 277 282 286 290 292 293 296 302 304 304 306 308 308 307 304 304
308 290 277 271 264 258 254 246 231 215 202 191 185 182 179 176 174 172 171 171 172 172 173 175 177 179 182 186 189 195 199 202 208 214 214 212 214 215 214 214 216 218 219 221 223 221 221 228 238 242 240 237 236 237 242 250 255 262 272 279 283 287 291 294 298 302 303 305 308 309 308 306 304 306
318 301 287 277 267 261 256 242 220 203 190 180 175 175 173 171 169 169 169 170 171 171 173 175 178 181 185 189 193 196 198 202 209 213 212 210 212 212 211 212 216 218 216 214 215 219 223 228 233 234 233 235 239 240 242 247 255 263 272 279 284 289 290 289 290 291 295 302 307 308 306 306 307 309